CAPE
185 187 210 376 263 311 907 1316 1421 1529 1406 1277 862 103 0 0 0 0 0 0 0 0 0 0 0 0 0 0 0 1 7 16 0
104 155 191 255 265 340 701 1075 1229 1384 1161 1185 677 273 0 0 0 0 0 0 0 0 0 0 0 0 0 0 0 0 0 0 80
11 68 181 228 289 384 786 983 1292 1406 1129 1104 760 254 0 0 8 2 8 0 0 0 0 0 0 0 0 0 0 0 0 0 0
2 36 56 228 320 405 810 1065 1312 1473 1297 1210 894 285 0 2 92 61 8 0 0 0 0 0 13 35 11 0 0 0 31 30 77
23 1 56 122 240 311 664 990 1350 1466 1485 1350 1105 362 12 53 305 277 101 27 10 0 0 0 0 0 0 0 0 0 0 22 58
0 0 0 45 93 178 442 831 1241 1397 1518 1459 1194 557 211 172 326 324 47 29 21 6 0 0 0 0 0 0 0 0 0 4 43
0 0 0 18 90 124 328 730 1047 1324 1435 1478 1226 612 271 256 162 3 17 24 24 2 0 0 0 0 0 1 0 0 20 67 163
3 10 23 14 116 237 458 752 1022 1324 1409 1375 1099 639 381 351 78 56 15 10 1 0 4 11 6 0 0 0 0 7 147 123 48
0 24 98 64 191 473 730 893 1045 1124 1215 1250 914 578 417 311 212 165 47 50 16 12 6 59 10 13 51 57 1 79 56 38 26
0 1 3 194 709 786 1041 1196 1162 1039 1023 938 864 538 364 284 318 140 151 151 124 51 21 68 103 76 111 21 65 57 77 55 30
0 0 0 0 143 735 1151 1506 1367 903 599 718 650 431 368 323 373 202 264 239 155 130 169 211 311 293 128 175 98 112 198 104 35
0 0 0 0 36 236 458 1397 1470 876 525 579 575 358 306 384 427 480 338 319 187 246 283 343 346 307 21 93 189 54 143 63 9
0 51 68 59 166 357 663 1256 1154 931 643 473 442 313 342 336 334 371 336 298 297 375 460 512 471 332 170 86 71 90 22 32 0
183 181 128 233 321 300 610 1132 1058 913 589 597 383 347 251 239 431 426 382 356 537 591 605 362 200 125 31 56 70 32 15 0 0
1 19 319 453 502 723 1156 1132 1099 907 653 327 332 255 260 180 20 175 675 699 880 689 484 333 86 22 14 57 22 0 0 0 1
0 0 0 215 611 1023 1459 1046 712 565 235 305 215 184 207 0 0 0 0 391 820 651 223 37 26 22 89 52 1 0 0 0 0
418 434 155 432 992 933 1055 745 556 453 319 72 11 0 0 0 0 0 13 439 396 259 231 154 27 15 12 0 0 0 0 0 0
652 652 790 929 1154 986 720 454 222 31 0 0 0 0 0 0 2 22 171 62 69 126 0 0 0 0 0 0 0 0 0 0 0
907 946 839 737 599 359 58 3 0 0 0 0 0 0 0 0 46 100 100 117 0 0 0 0 0 0 0 0 0 0 0 0 0
625 718 914 862 375 60 37 2 0 0 0 0 0 0 0 27 167 225 46 11 35 0 0 0 0 0 0 0 0 0 0 0 0
CIN
-166 -237 -258 -277 -251 -255 -196 -150 -144 -136 -140 -128 -175 -292 0 0 0 0 0 0 0 0 0 0 0 0 0 0 0 -71 -183 -180 0
-188 -251 -253 -268 -269 -277 -241 -204 -178 -176 -189 -161 -207 -249 0 0 0 0 0 -15 0 0 0 0 0 0 0 0 0 0 0 -20 -112
-230 -208 -241 -266 -267 -274 -267 -256 -245 -210 -226 -202 -214 -275 0 0 -335 -277 -353 0 0 0 0 0 0 0 0 0 0 0 0 0 0
-109 -238 -235 -239 -284 -280 -288 -261 -252 -248 -244 -218 -216 -292 0 -142 -308 -322 -355 0 0 0 0 0 -269 -207 -190 0 0 0 -112 -95 -53
-181 -13 -248 -218 -231 -269 -312 -296 -278 -260 -251 -220 -211 -302 -250 -321 -252 -272 -354 -349 -327 0 0 -15 0 0 0 0 0 0 -8 -120 -65
0 0 -26 -191 -229 -286 -311 -297 -294 -279 -254 -231 -224 -263 -306 -297 -255 -257 -372 -357 -321 -240 0 0 0 0 0 0 0 0 0 -8 -49
0 0 0 -207 -201 -250 -296 -307 -290 -293 -268 -240 -227 -249 -310 -300 -310 -154 -338 -335 -295 -106 0 0 0 0 0 -10 0 0 -42 -60 -48
-120 -118 -158 -189 -180 -216 -260 -261 -293 -283 -270 -283 -248 -272 -288 -283 -335 -302 -291 -295 -88 0 -249 -207 -185 0 0 0 0 -8 -30 -48 -39
0 -128 -111 -166 -151 -188 -216 -242 -256 -304 -287 -305 -306 -279 -283 -267 -253 -220 -259 -246 -248 -249 -232 -173 -124 -108 -84 -77 -4 -50 -25 -35 -42
0 -94 -71 -101 -154 -180 -189 -206 -248 -294 -323 -374 -302 -303 -316 -283 -216 -224 -226 -211 -233 -214 -226 -149 -98 -86 -61 -53 -126 -37 -56 -99 -57
0 0 0 0 -125 -126 -126 -151 -212 -296 -405 -376 -303 -286 -279 -253 -202 -211 -179 -181 -176 -179 -169 -107 -78 -52 -44 -39 -84 -72 -47 -40 -45
0 0 0 0 -180 -194 -172 -156 -205 -295 -421 -354 -288 -294 -259 -232 -181 -151 -158 -140 -151 -162 -121 -77 -55 -46 -11 -72 -39 -58 -43 -80 -51
0 -132 -147 -143 -168 -180 -159 -197 -299 -334 -372 -329 -305 -300 -256 -197 -139 -119 -112 -120 -119 -100 -78 -53 -43 -37 -86 -96 -43 -51 -64 -117 0
-109 -100 -98 -112 -173 -197 -177 -228 -300 -320 -356 -283 -281 -236 -182 -139 -116 -92 -87 -80 -90 -64 -53 -104 -102 -79 -100 -89 -79 -129 -109 0 0
-41 -30 -115 -132 -108 -114 -180 -249 -249 -275 -291 -360 -253 -195 -145 -158 -84 -203 -78 -61 -73 -52 -88 -98 -78 -81 -102 -134 -159 0 0 0 -55
0 0 0 -141 -114 -130 -238 -285 -374 -289 -329 -273 -291 -262 -206 -16 0 0 0 -17 -34 -90 -131 -145 -157 -86 -101 -129 -21 0 0 0 0
-76 -154 -182 -215 -233 -193 -241 -327 -329 -255 -275 -367 -389 0 0 0 0 0 -59 -65 -72 -73 -68 -69 -194 -108 -161 0 0 0 0 0 0
-157 -210 -340 -407 -312 -314 -358 -372 -360 -405 0 0 0 0 0 0 -72 -80 -143 -161 -176 -133 0 0 0 0 0 0 0 0 0 0 0
-105 -164 -305 -373 -402 -420 -418 -146 0 0 0 0 0 0 0 0 -78 -127 -125 -146 -5 0 0 0 0 0 0 0 0 0 0 0 0
-79 -97 -128 -199 -277 -370 -412 -224 0 0 0 0 0 0 -80 -190 -79 -95 -121 -220 -201 0 0 0 0 0 0 0 0 0 0 0 0
Wind_Speed
25 20 20 17 17 15 15 15 15 13 12 11 10 7 5 6 8 11 13 13 15 15 15 15 15 15 15 15 16 18 18 15 17
21 20 21 23 23 20 18 17 16 16 15 14 14 10 6 4 5 8 10 10 12 14 15 15 15 14 14 15 16 18 19 18 16
17 19 20 20 23 23 22 21 18 16 16 16 15 12 8 5 2 5 8 9 11 13 14 14 14 15 15 15 15 16 19 18 15
13 17 21 19 22 23 22 21 19 17 15 15 14 12 9 6 3 1 4 7 10 12 13 13 15 15 15 15 16 17 17 16 14
13 16 19 19 22 22 21 21 19 18 15 15 13 11 9 7 4 3 1 4 7 10 10 13 15 16 16 16 16 16 16 16 15
9 9 15 17 18 18 17 20 20 18 17 16 13 11 10 8 6 5 3 2 5 7 9 11 13 15 15 15 15 15 15 14 15
10 7 11 14 14 16 15 17 20 19 17 16 13 12 12 11 7 5 4 3 4 6 8 9 11 13 14 15 16 16 15 15 16
4 5 4 8 10 11 12 12 14 17 17 15 15 14 13 12 8 6 4 3 3 5 6 9 11 13 13 15 17 17 16 16 17
6 5 5 5 8 9 10 12 13 14 18 18 15 15 14 11 9 8 6 5 4 5 7 9 12 13 15 15 17 19 16 16 17
2 7 9 11 8 11 10 12 13 14 16 15 18 15 13 12 11 9 8 6 5 6 7 10 10 12 13 15 17 18 16 16 17
4 2 7 11 11 5 9 11 13 12 13 16 15 14 13 11 11 10 9 6 7 8 11 9 10 11 14 11 17 18 17 16 14
6 7 9 13 14 13 8 7 9 12 13 15 15 13 13 12 12 11 9 9 9 10 11 10 13 14 15 27 21 22 17 14 17
8 7 7 12 14 15 12 8 6 8 11 13 14 13 13 12 11 11 11 10 11 11 11 11 11 12 17 19 21 17 13 15 18
6 8 11 13 14 14 10 7 3 7 9 12 12 10 9 9 10 11 12 11 13 11 13 16 18 17 19 20 17 19 19 17 18
16 18 19 14 17 17 12 8 6 5 7 8 7 7 8 12 19 27 34 15 14 14 18 22 17 17 19 20 20 19 20 19 18
28 31 26 24 18 17 16 12 7 6 4 3 3 5 6 11 22 30 42 23 13 16 20 23 21 19 23 23 21 19 19 20 21
26 33 34 22 16 15 14 6 4 2 2 4 3 7 12 13 13 18 22 12 12 17 16 17 18 20 22 20 17 18 20 21 22
28 28 26 23 17 12 8 5 3 3 5 7 7 9 10 12 13 8 12 17 15 13 14 14 15 17 16 15 16 17 20 21 22
25 25 22 18 12 7 5 4 5 8 8 6 6 8 16 18 15 13 11 14 16 16 16 15 15 14 15 17 16 19 20 20 18
19 18 14 12 9 8 6 8 9 8 12 17 18 19 22 16 15 12 12 13 12 15 18 17 18 16 16 16 17 20 25 23 17
Wind_Direction
178 172 176 183 183 179 174 175 177 177 178 176 168 154 124 71 53 42 33 36 30 29 27 26 24 23 20 17 13 8 6 5 6
180 179 177 178 179 180 182 182 184 185 183 182 177 171 156 125 69 34 29 30 28 20 18 20 25 25 20 12 7 4 1 3 1
182 182 180 181 182 183 184 186 187 188 190 189 186 183 180 167 81 37 32 30 21 15 17 17 18 13 11 9 5 359 357 357 357
178 179 182 183 185 187 191 192 193 197 198 195 195 195 193 200 199 79 37 24 14 11 13 15 10 7 4 2 1 358 357 355 355
174 184 188 186 186 186 191 195 198 205 207 207 208 210 207 218 226 234 304 356 7 9 12 8 3 1 0 0 359 360 1 0 359
164 163 176 185 184 190 198 200 201 203 209 214 221 221 221 225 238 235 253 313 349 1 1 2 2 1 1 1 360 1 3 2 356
146 149 158 178 190 198 202 201 203 204 205 207 213 214 214 214 228 233 267 307 332 346 353 356 357 357 358 357 357 358 356 354 352
160 168 177 186 198 207 214 210 211 211 212 212 211 214 217 217 222 230 257 292 310 328 338 343 348 351 352 352 352 353 352 354 356
186 228 275 244 227 241 232 222 216 212 213 215 215 220 226 238 244 246 251 270 286 314 324 334 341 344 346 349 350 352 352 350 350
213 306 306 306 292 281 254 236 232 224 216 218 219 222 224 231 236 252 242 256 289 310 318 329 329 336 340 343 347 348 345 342 344
264 305 318 325 338 312 265 250 240 239 228 224 226 232 230 232 229 244 244 259 285 308 322 322 322 332 336 341 340 345 342 338 338
274 293 311 324 339 339 322 249 228 223 223 225 229 230 229 233 234 233 252 273 287 302 314 320 335 337 344 331 334 340 341 341 338
293 294 308 326 334 344 340 319 276 234 224 223 224 225 231 227 228 246 262 266 284 299 313 316 331 326 330 331 333 341 346 339 338
296 300 305 315 325 329 333 332 302 250 228 224 229 234 228 230 262 248 258 272 297 307 322 335 337 337 334 339 341 340 337 344 340
312 306 302 304 310 315 325 325 308 270 244 272 278 292 305 320 318 304 280 279 303 316 324 327 339 338 335 338 342 340 341 345 346
305 303 314 312 302 315 321 323 329 325 319 303 313 301 301 332 332 303 302 301 318 316 322 325 331 333 335 336 340 344 347 347 347
308 310 308 317 307 304 314 323 358 38 14 315 360 321 324 332 327 305 321 350 342 328 330 332 335 337 338 342 344 346 345 344 344
318 316 318 314 308 306 316 325 347 38 12 339 325 325 339 335 330 318 319 327 338 340 341 343 344 346 348 347 345 347 345 342 342
314 323 327 328 330 328 344 354 353 346 349 356 339 329 332 334 319 318 325 332 339 351 354 358 358 359 357 355 354 350 347 343 345
320 326 335 335 331 332 328 321 323 331 319 315 315 305 316 317 305 311 320 331 336 339 347 358 359 358 358 360 356 353 348 350 359